SCP
0 -0 -0 -0 -0 -0 -0 -0 -0 -0 -0 -0 -0 -0 -0 -0 -0 -0 0 -0 -0 -0 -0 -0 -0 -0 -0 -0 -0 -0 -0 -0 -0 -0 -0 -0 -0 -0 -0 -0 0 -0 0
-0 -0 -0 -0 -0 -0 -0 -0 -0 -0 -0 -0 -0 -0 -0 -0 -0 -0 -0 -0 -0 -0 -0 -0 -0 -0 -0 -0 -0 -0 -0 -0 -0 -0 -0 0 0 -0 -0 -0 -0 -0 -0
-0 -0 -0 -0 -0 0 0 -0 -0 -0 -0 -0 -0 -0 -0 -0 -0 -0 -0 -0 -0 -0 -0 -0 -0 -0 -0 -0 -0 -0 -0 -0 0 0 0 -0 -0 -0 -0 -0 -0 -0 -0
-0 0 0 -0 -0 0 0 0 0 0 0 0 -0 -0 -0 -0 -0 -0 -0 -0 -0 -0 -0 -0 -0 -0 -0 -0 0 0 0 0 0 0 -0 0 0 -0 -0 -0 -0 -0 -0
0 0 0 0 -0 -0 0 0 0 0 0 0 0 0 0 0 0 0 0 -0 -0 -0 -0 -0 -0 0 0 0 0 0 0 0 0 0 0 0 0 0 -0 -0 0 0 0
0 0 0 0 0 0 0 0 0 0 0 0 0 0 0 0 0 0 0 0 0 0 0 0 0 0 0 0 0 0 0 -0 0 0 0 0 0 0 0 0 0 0 -0
0 0 0 0 0 0 0 0 0 0 0 0 0 0 0 0 0 0 0 0 0 0 0 0 0 0 0 0 0 0 -0 -0 0 0 0 0 0 0 -0 -0 -0 -0 -0
0 0 0 0 0 0 0 0 0 0 0 0 0 0 0 0 0 0 0 0 0 0 0 0 0 0 0 -0 0 0 0 0 0 0 0 0 0 -0 -0 -0 -0 -0 0
0 0 0 0 0 0 0 0 0 0 0 0 0 0 0 0 0 0 0 0 0 0 0 0 0 0 0 0 0 0 0 0 0 0 0 0 0 -0 -0 0 -0 0 0
0 0 0 0 0 0 0 0 0 0 0 0 0 0 0 0 0 0 0 0 0 0 0 0 0 0 0 0 0 0 0 0 0 0 0 0 0 0 -0 0 0 0 0
0 0 0 0 0 0 0 0 0 0 0 0 0 0 0 0 0 0 0 0 0 0 0 0 0 0 0 0 0 0 0 0 0 0 0 0 0 0 0 0 0 0 0
0 0 0 0 0 0 0 0 0 0 0 0 0 0 0 0 0 0 0 0 0 0 0 0 0 0 0 0 0 0 0 0 0 0 0 0 0 0 0 0 0 0 0
0 0 0 0 0 0 0 0 0 0 0 0 0 0 0 0 0 0 0 0 0 0 0 0 0 0 0 0 0 0 0 0 0 0 0 0 0 0 0 0 0 0 0
0 0 0 0 0 0 0 0 0 0 0 0 0 0 0 0 0 0 0 0 0 0 0 0 0 0 0 0 0 0 0 0 0 0 0 0 0 0 0 0 0 0 0
0 0 0 0 0 0 0 0 0 0 0 0 0 0 0 0 0 0 0 0 0 0 0 0 0 0 0 0 0 0 0 0 0 0 0 0 0 0 0 0 0 0 0
0 0 0 0 0 0 0 0 0 0 0 0 0 0 0 0 0 0 0 0 0 0 0 0 0 0 0 0 0 0 0 0 0 0 0 0 0 0 0 0 0 0 0
0 0 0 0 0 0 0 0 0 0 0 0 0 0 0 0 0 0 0 0 0 0 0 0 0 0 0 0 0 0 0 0 0 0 0 0 0 0 0 0 0 0 0
0 0 0 0 0 0 0 0 0 0 0 0 0 0 0 0 0 0 0 0 0 0 0 0 0 0 0 0 0 0 0 0 0 0 0 0 0 0 0 0 0 0 0
0 0 0 0 0 0 0 0 0 0 0 0 0 0 0 0 0 0 0 0 0 0 0 0 0 0 0 0 0 0 0 0 0 0 0 0 0 0 0 0 0 0 0
0 0 0 0 0 0 0 0 0 0 0 0 0 0 0 0 0 0 0 0 0 0 0 0 0 0 0 0 0 0 0 0 0 0 0 0 0 0 0 0 0 0 0
0 0 0 0 0 0 0 0 0 0 0 0 0 0 0 0 0 0 0 0 0 0 0 0 0 0 0 0 0 0 0 0 0 0 0 0 0 0 0 0 0 0 0
0 0 0 0 0 0 0 0 0 0 0 0 0 0 0 0 0 0 0 0 0 0 0 0 0 0 0 0 0 0 0 0 0 0 0 0 0 0 0 0 0 0 0
0 0 0 0 0 0 0 0 0 0 0 0 0 0 0 0 0 0 0 0 0 0 0 0 0 0 0 0 0 0 0 0 0 0 0 0 0 0 0 0 0 0 0
0 0 0 0 0 0 0 0 0 0 0 0 0 0 0 0 0 0 0 0 0 0 0 0 0 0 0 0 0 0 0 0 0 0 0 0 0 0 0 0 0 0 0
0 0 0 0 0 0 0 0 0 0 -0 -0 0 0 0 0 0 0 0 0 0 0 0 0 0 0 0 0 0 0 0 0 0 0 0 0 0 0 0 0 0 0 0
0 0 0 0 0 0 0 0 0 0 0 -0 0 0 0 0 0 0 0 0 0 0 0 0 0 0 0 0 0 0 0 0 0 0 0 0 0 0 0 0 0 0 0
Wind_Speed_500mb
28 39 47 43 38 36 33 33 33 29 25 25 28 22 21 22 20 19 19 28 31 31 33 32 33 33 32 31 31 34 39 42 44 42 41 41 38 37 40 37 35 38 37
21 32 48 45 39 36 34 32 34 30 25 29 28 24 22 22 24 25 29 31 29 30 31 31 33 33 33 33 35 41 46 46 44 41 37 38 31 32 33 38 52 57 57
23 26 49 45 42 38 35 34 35 29 26 26 29 26 22 25 27 29 31 31 31 30 29 31 32 33 34 35 38 43 43 43 38 34 37 36 45 48 54 48 50 46 38
23 22 48 43 42 38 35 35 35 31 29 21 27 27 24 26 28 30 30 31 31 30 30 31 32 32 33 35 38 40 39 37 35 30 32 35 40 41 42 37 37 36 27
29 24 44 44 40 39 37 35 34 33 30 24 24 30 29 28 29 32 29 32 32 31 31 31 32 32 33 33 35 40 36 34 29 29 27 45 35 34 31 27 22 19 15
27 28 36 47 43 41 38 35 32 33 32 28 27 32 34 33 32 32 30 30 34 33 32 33 33 33 31 29 31 32 33 30 24 28 33 31 29 28 21 18 11 8 6
28 30 27 49 45 44 40 36 31 33 32 31 32 35 37 36 34 32 32 32 30 32 30 35 36 34 28 26 29 28 31 28 25 35 37 36 27 23 19 15 8 10 19
29 32 25 40 47 43 42 38 34 35 33 32 35 34 36 36 38 35 33 33 31 30 22 33 31 36 29 27 27 29 32 30 33 32 30 28 23 22 14 6 9 15 20
35 35 33 31 42 46 46 43 41 38 35 35 37 38 36 37 36 37 36 35 33 29 23 32 31 30 31 29 28 26 29 29 30 38 33 26 20 12 3 10 16 13 11
36 41 42 39 43 48 51 48 46 43 38 38 37 42 42 38 37 38 41 42 33 33 27 28 29 27 34 29 27 28 38 34 33 36 25 22 12 2 10 17 12 13 13
45 49 51 50 48 45 56 54 50 46 41 42 41 46 43 40 41 38 44 43 42 36 33 29 28 24 29 29 26 24 37 30 29 28 22 11 8 14 19 8 9 12 14
52 48 51 53 53 47 59 57 57 53 50 49 48 48 46 43 41 44 45 43 43 39 37 34 31 28 27 30 26 24 27 25 22 22 19 13 15 14 10 10 14 18 22
32 54 54 55 57 55 58 65 65 64 59 56 54 48 46 48 44 50 52 49 45 44 41 40 38 29 25 37 29 26 32 26 22 23 21 14 8 27 24 23 24 23 23
43 42 50 57 58 59 63 71 71 74 67 66 64 57 53 53 52 53 52 53 50 45 44 40 39 34 26 41 35 30 27 25 23 24 22 15 26 29 25 21 20 20 18
51 39 55 54 58 65 69 75 78 77 74 73 69 64 60 59 60 57 57 57 57 51 44 43 42 36 35 42 41 36 32 29 26 27 29 23 24 27 25 17 17 16 14
62 54 33 66 67 66 77 85 89 80 73 73 74 72 67 63 65 59 60 61 62 57 50 49 46 40 43 48 41 36 34 32 30 34 34 37 38 25 14 7 16 11 10
64 67 59 50 71 77 75 84 86 91 83 76 69 74 71 69 70 66 64 63 66 62 55 53 51 50 46 53 48 46 41 37 37 30 32 31 26 22 15 11 9 8 9
65 67 63 58 55 66 84 84 92 92 89 85 81 76 75 73 78 73 68 65 68 69 62 59 53 62 50 54 51 51 50 43 37 33 33 31 29 25 18 14 11 12 14
62 63 68 55 54 57 71 84 90 96 95 95 91 84 80 79 86 81 75 70 76 74 74 69 60 54 55 51 54 52 49 46 39 36 34 32 28 23 19 15 14 14 16
46 55 60 66 59 47 56 73 94 100 107 99 95 95 87 85 89 89 83 81 82 76 77 72 70 66 59 59 59 54 48 45 39 36 35 32 29 25 21 17 15 16 17
37 47 63 63 67 71 55 59 78 106 113 107 103 105 98 92 92 95 90 89 86 88 83 81 76 71 70 63 59 52 45 42 42 38 35 33 30 26 22 19 17 17 18
24 30 36 42 44 52 69 66 62 87 91 112 104 107 107 101 101 100 101 98 90 94 85 81 80 76 70 68 65 59 38 36 42 42 39 36 32 27 23 20 19 18 18
42 46 48 48 48 44 47 59 69 61 80 104 109 113 114 111 109 104 110 104 99 97 95 92 90 85 78 72 66 43 24 23 48 45 44 38 33 28 25 22 21 19 20
44 48 59 64 70 76 74 64 65 70 83 86 117 114 112 118 109 110 115 109 102 95 97 93 87 81 77 75 75 70 37 24 28 30 46 40 35 32 27 23 18 22 22
77 75 68 73 79 87 90 81 78 75 77 87 84 124 121 118 119 115 120 109 101 94 96 94 91 85 79 76 76 77 57 33 28 23 35 44 39 29 20 16 19 27 23
76 98 99 97 104 91 86 86 83 91 77 76 74 107 119 128 123 118 111 114 102 98 98 94 87 82 80 74 73 70 61 56 43 34 33 35 28 25 23 20 32 25 19
Wind_Direction_500mb
182 186 181 177 174 168 164 164 170 166 165 174 152 149 153 155 162 168 158 136 130 130 127 127 126 125 124 121 113 108 103 101 98 95 99 96 90 92 90 89 88 90 87
195 186 185 180 178 175 170 169 172 176 177 168 150 152 159 158 157 155 142 132 130 130 127 126 125 123 122 118 114 116 111 105 98 97 95 93 87 104 102 97 97 104 102
190 195 191 186 183 181 178 175 174 180 182 177 154 155 157 151 151 146 141 138 136 132 128 129 129 128 126 120 120 122 116 106 102 96 96 92 101 109 114 117 113 109 107
212 203 194 193 188 189 185 182 182 185 193 191 166 158 161 158 157 151 144 143 136 136 133 133 132 129 126 122 124 129 124 113 112 110 111 114 119 116 114 117 119 115 106
217 217 199 198 195 193 191 190 191 191 195 194 183 165 163 162 155 155 149 141 147 139 140 138 133 128 127 126 125 131 127 121 121 121 125 140 126 113 122 123 113 101 78
225 207 208 202 197 197 198 200 200 201 203 199 192 174 166 168 162 153 153 154 137 150 144 139 133 130 128 129 128 132 135 132 131 133 143 140 136 129 128 125 107 86 4
226 222 214 206 200 203 206 206 208 209 206 205 191 175 168 163 163 158 158 152 150 139 136 138 132 126 122 124 136 142 137 143 146 148 143 134 135 145 145 126 84 7 330
222 229 220 215 209 203 209 211 208 205 206 200 183 179 173 172 170 164 164 161 153 144 142 140 136 129 130 131 131 137 151 158 155 163 146 139 135 141 125 79 352 319 312
220 236 232 224 218 216 213 211 209 208 209 204 188 182 180 178 176 171 165 134 141 153 162 142 149 146 141 138 142 140 154 162 165 151 144 143 148 139 91 339 323 331 345
220 241 235 231 227 223 218 212 212 214 214 212 202 191 186 183 181 183 161 151 156 164 166 159 154 147 147 148 142 157 148 152 162 156 159 148 194 190 297 300 329 7 25
213 223 235 233 230 235 222 215 214 216 217 212 212 196 191 192 188 169 161 164 163 172 174 170 163 155 153 155 159 155 159 163 167 160 163 165 240 270 269 293 18 46 58
218 221 227 238 239 241 225 218 215 215 214 211 213 205 200 195 192 174 169 172 170 175 181 181 176 168 161 165 161 166 178 171 179 183 186 209 241 252 134 84 71 75 78
272 231 235 244 246 243 226 221 219 216 215 214 216 214 208 198 192 178 179 177 182 182 187 189 178 180 174 177 178 180 173 181 196 201 201 209 210 121 114 105 99 92 86
272 264 248 240 247 246 229 225 221 220 218 216 216 216 211 203 193 184 188 182 188 190 194 195 188 186 173 182 186 189 191 198 196 192 191 180 145 129 123 114 101 92 82
278 283 258 248 241 244 238 230 225 224 225 222 220 218 216 207 195 192 190 191 192 191 200 198 193 190 180 181 195 199 198 197 198 187 186 177 155 136 129 122 112 105 82
263 260 285 256 249 241 235 233 228 226 223 224 225 224 218 211 201 195 193 193 197 194 197 204 198 195 182 183 190 195 202 198 194 183 175 170 166 178 184 155 127 127 95
271 265 268 278 254 246 243 235 229 226 222 221 231 226 219 211 203 198 197 197 198 198 198 202 199 195 198 191 195 200 204 192 189 201 198 201 209 221 238 238 248 272 304
280 277 278 270 270 256 242 240 234 225 230 227 227 228 221 212 204 199 200 201 196 197 200 202 204 192 205 196 202 196 207 198 210 209 210 213 217 230 239 250 267 280 293
278 275 272 273 269 267 251 240 238 231 224 233 228 225 223 214 207 201 202 203 196 198 201 205 203 217 205 202 202 201 208 214 215 212 212 215 220 231 239 251 263 276 293
272 271 274 270 266 268 266 254 239 235 229 229 230 225 222 216 208 203 203 205 204 203 198 210 213 207 209 205 197 197 203 209 216 216 217 218 222 231 240 250 259 271 284
280 283 274 275 274 265 269 261 250 223 224 220 217 221 221 217 208 206 204 205 206 207 208 208 207 209 197 202 197 188 192 201 209 213 217 224 227 231 239 249 254 269 282
280 277 285 287 288 280 266 266 263 252 223 218 215 220 220 217 209 206 206 208 208 204 206 208 205 196 202 203 198 189 183 199 205 210 214 220 226 234 245 254 262 268 282
283 280 279 283 286 281 275 275 267 267 251 212 217 210 214 216 213 209 206 207 208 208 208 204 206 209 203 203 206 192 176 203 202 209 213 218 226 234 241 248 259 274 287
308 300 291 287 284 281 281 280 274 263 257 231 217 213 211 214 215 211 208 209 209 210 209 208 209 212 214 209 201 207 205 204 179 186 211 218 224 229 230 237 260 272 278
303 304 303 290 283 279 279 275 270 266 259 256 230 213 208 210 211 212 210 211 208 211 209 210 208 211 215 216 211 206 205 197 187 175 184 201 211 213 219 233 272 261 269
294 300 296 288 275 272 270 269 261 256 262 260 254 196 200 206 208 211 210 213 211 212 210 211 212 214 214 217 216 211 214 209 198 189 171 179 190 194 220 254 260 255 267
Wind_Speed_850mb
28 39 47 43 38 36 33 33 33 29 25 25 28 22 21 22 20 19 19 28 31 31 33 32 33 33 32 31 31 34 39 42 44 42 41 41 38 37 40 37 35 38 37
21 32 48 45 39 36 34 32 34 30 25 29 28 24 22 22 24 25 29 31 29 30 31 31 33 33 33 33 35 41 46 46 44 41 37 38 31 32 33 38 52 57 57
23 26 49 45 42 38 35 34 35 29 26 26 29 26 22 25 27 29 31 31 31 30 29 31 32 33 34 35 38 43 43 43 38 34 37 36 45 48 54 48 50 46 38
23 22 48 43 42 38 35 35 35 31 29 21 27 27 24 26 28 30 30 31 31 30 30 31 32 32 33 35 38 40 39 37 35 30 32 35 40 41 42 37 37 36 27
29 24 44 44 40 39 37 35 34 33 30 24 24 30 29 28 29 32 29 32 32 31 31 31 32 32 33 33 35 40 36 34 29 29 27 45 35 34 31 27 22 19 15
27 28 36 47 43 41 38 35 32 33 32 28 27 32 34 33 32 32 30 30 34 33 32 33 33 33 31 29 31 32 33 30 24 28 33 31 29 28 21 18 11 8 6
28 30 27 49 45 44 40 36 31 33 32 31 32 35 37 36 34 32 32 32 30 32 30 35 36 34 28 26 29 28 31 28 25 35 37 36 27 23 19 15 8 10 19
29 32 25 40 47 43 42 38 34 35 33 32 35 34 36 36 38 35 33 33 31 30 22 33 31 36 29 27 27 29 32 30 33 32 30 28 23 22 14 6 9 15 20
35 35 33 31 42 46 46 43 41 38 35 35 37 38 36 37 36 37 36 35 33 29 23 32 31 30 31 29 28 26 29 29 30 38 33 26 20 12 3 10 16 13 11
36 41 42 39 43 48 51 48 46 43 38 38 37 42 42 38 37 38 41 42 33 33 27 28 29 27 34 29 27 28 38 34 33 36 25 22 12 2 10 17 12 13 13
45 49 51 50 48 45 56 54 50 46 41 42 41 46 43 40 41 38 44 43 42 36 33 29 28 24 29 29 26 24 37 30 29 28 22 11 8 14 19 8 9 12 14
52 48 51 53 53 47 59 57 57 53 50 49 48 48 46 43 41 44 45 43 43 39 37 34 31 28 27 30 26 24 27 25 22 22 19 13 15 14 10 10 14 18 22
32 54 54 55 57 55 58 65 65 64 59 56 54 48 46 48 44 50 52 49 45 44 41 40 38 29 25 37 29 26 32 26 22 23 21 14 8 27 24 23 24 23 23
43 42 50 57 58 59 63 71 71 74 67 66 64 57 53 53 52 53 52 53 50 45 44 40 39 34 26 41 35 30 27 25 23 24 22 15 26 29 25 21 20 20 18
51 39 55 54 58 65 69 75 78 77 74 73 69 64 60 59 60 57 57 57 57 51 44 43 42 36 35 42 41 36 32 29 26 27 29 23 24 27 25 17 17 16 14
62 54 33 66 67 66 77 85 89 80 73 73 74 72 67 63 65 59 60 61 62 57 50 49 46 40 43 48 41 36 34 32 30 34 34 37 38 25 14 7 16 11 10
64 67 59 50 71 77 75 84 86 91 83 76 69 74 71 69 70 66 64 63 66 62 55 53 51 50 46 53 48 46 41 37 37 30 32 31 26 22 15 11 9 8 9
65 67 63 58 55 66 84 84 92 92 89 85 81 76 75 73 78 73 68 65 68 69 62 59 53 62 50 54 51 51 50 43 37 33 33 31 29 25 18 14 11 12 14
62 63 68 55 54 57 71 84 90 96 95 95 91 84 80 79 86 81 75 70 76 74 74 69 60 54 55 51 54 52 49 46 39 36 34 32 28 23 19 15 14 14 16
46 55 60 66 59 47 56 73 94 100 107 99 95 95 87 85 89 89 83 81 82 76 77 72 70 66 59 59 59 54 48 45 39 36 35 32 29 25 21 17 15 16 17
37 47 63 63 67 71 55 59 78 106 113 107 103 105 98 92 92 95 90 89 86 88 83 81 76 71 70 63 59 52 45 42 42 38 35 33 30 26 22 19 17 17 18
24 30 36 42 44 52 69 66 62 87 91 112 104 107 107 101 101 100 101 98 90 94 85 81 80 76 70 68 65 59 38 36 42 42 39 36 32 27 23 20 19 18 18
42 46 48 48 48 44 47 59 69 61 80 104 109 113 114 111 109 104 110 104 99 97 95 92 90 85 78 72 66 43 24 23 48 45 44 38 33 28 25 22 21 19 20
44 48 59 64 70 76 74 64 65 70 83 86 117 114 112 118 109 110 115 109 102 95 97 93 87 81 77 75 75 70 37 24 28 30 46 40 35 32 27 23 18 22 22
77 75 68 73 79 87 90 81 78 75 77 87 84 124 121 118 119 115 120 109 101 94 96 94 91 85 79 76 76 77 57 33 28 23 35 44 39 29 20 16 19 27 23
76 98 99 97 104 91 86 86 83 91 77 76 74 107 119 128 123 118 111 114 102 98 98 94 87 82 80 74 73 70 61 56 43 34 33 35 28 25 23 20 32 25 19
Wind_Direction_850mb
182 186 181 177 174 168 164 164 170 166 165 174 152 149 153 155 162 168 158 136 130 130 127 127 126 125 124 121 113 108 103 101 98 95 99 96 90 92 90 89 88 90 87
195 186 185 180 178 175 170 169 172 176 177 168 150 152 159 158 157 155 142 132 130 130 127 126 125 123 122 118 114 116 111 105 98 97 95 93 87 104 102 97 97 104 102
190 195 191 186 183 181 178 175 174 180 182 177 154 155 157 151 151 146 141 138 136 132 128 129 129 128 126 120 120 122 116 106 102 96 96 92 101 109 114 117 113 109 107
212 203 194 193 188 189 185 182 182 185 193 191 166 158 161 158 157 151 144 143 136 136 133 133 132 129 126 122 124 129 124 113 112 110 111 114 119 116 114 117 119 115 106
217 217 199 198 195 193 191 190 191 191 195 194 183 165 163 162 155 155 149 141 147 139 140 138 133 128 127 126 125 131 127 121 121 121 125 140 126 113 122 123 113 101 78
225 207 208 202 197 197 198 200 200 201 203 199 192 174 166 168 162 153 153 154 137 150 144 139 133 130 128 129 128 132 135 132 131 133 143 140 136 129 128 125 107 86 4
226 222 214 206 200 203 206 206 208 209 206 205 191 175 168 163 163 158 158 152 150 139 136 138 132 126 122 124 136 142 137 143 146 148 143 134 135 145 145 126 84 7 330
222 229 220 215 209 203 209 211 208 205 206 200 183 179 173 172 170 164 164 161 153 144 142 140 136 129 130 131 131 137 151 158 155 163 146 139 135 141 125 79 352 319 312
220 236 232 224 218 216 213 211 209 208 209 204 188 182 180 178 176 171 165 134 141 153 162 142 149 146 141 138 142 140 154 162 165 151 144 143 148 139 91 339 323 331 345
220 241 235 231 227 223 218 212 212 214 214 212 202 191 186 183 181 183 161 151 156 164 166 159 154 147 147 148 142 157 148 152 162 156 159 148 194 190 297 300 329 7 25
213 223 235 233 230 235 222 215 214 216 217 212 212 196 191 192 188 169 161 164 163 172 174 170 163 155 153 155 159 155 159 163 167 160 163 165 240 270 269 293 18 46 58
218 221 227 238 239 241 225 218 215 215 214 211 213 205 200 195 192 174 169 172 170 175 181 181 176 168 161 165 161 166 178 171 179 183 186 209 241 252 134 84 71 75 78
272 231 235 244 246 243 226 221 219 216 215 214 216 214 208 198 192 178 179 177 182 182 187 189 178 180 174 177 178 180 173 181 196 201 201 209 210 121 114 105 99 92 86
272 264 248 240 247 246 229 225 221 220 218 216 216 216 211 203 193 184 188 182 188 190 194 195 188 186 173 182 186 189 191 198 196 192 191 180 145 129 123 114 101 92 82
278 283 258 248 241 244 238 230 225 224 225 222 220 218 216 207 195 192 190 191 192 191 200 198 193 190 180 181 195 199 198 197 198 187 186 177 155 136 129 122 112 105 82
263 260 285 256 249 241 235 233 228 226 223 224 225 224 218 211 201 195 193 193 197 194 197 204 198 195 182 183 190 195 202 198 194 183 175 170 166 178 184 155 127 127 95
271 265 268 278 254 246 243 235 229 226 222 221 231 226 219 211 203 198 197 197 198 198 198 202 199 195 198 191 195 200 204 192 189 201 198 201 209 221 238 238 248 272 304
280 277 278 270 270 256 242 240 234 225 230 227 227 228 221 212 204 199 200 201 196 197 200 202 204 192 205 196 202 196 207 198 210 209 210 213 217 230 239 250 267 280 293
278 275 272 273 269 267 251 240 238 231 224 233 228 225 223 214 207 201 202 203 196 198 201 205 203 217 205 202 202 201 208 214 215 212 212 215 220 231 239 251 263 276 293
272 271 274 270 266 268 266 254 239 235 229 229 230 225 222 216 208 203 203 205 204 203 198 210 213 207 209 205 197 197 203 209 216 216 217 218 222 231 240 250 259 271 284
280 283 274 275 274 265 269 261 250 223 224 220 217 221 221 217 208 206 204 205 206 207 208 208 207 209 197 202 197 188 192 201 209 213 217 224 227 231 239 249 254 269 282
280 277 285 287 288 280 266 266 263 252 223 218 215 220 220 217 209 206 206 208 208 204 206 208 205 196 202 203 198 189 183 199 205 210 214 220 226 234 245 254 262 268 282
283 280 279 283 286 281 275 275 267 267 251 212 217 210 214 216 213 209 206 207 208 208 208 204 206 209 203 203 206 192 176 203 202 209 213 218 226 234 241 248 259 274 287
308 300 291 287 284 281 281 280 274 263 257 231 217 213 211 214 215 211 208 209 209 210 209 208 209 212 214 209 201 207 205 204 179 186 211 218 224 229 230 237 260 272 278
303 304 303 290 283 279 279 275 270 266 259 256 230 213 208 210 211 212 210 211 208 211 209 210 208 211 215 216 211 206 205 197 187 175 184 201 211 213 219 233 272 261 269
294 300 296 288 275 272 270 269 261 256 262 260 254 196 200 206 208 211 210 213 211 212 210 211 212 214 214 217 216 211 214 209 198 189 171 179 190 194 220 254 260 255 267